Voltar ao catálogo

CZ-4B DEB

AtivoSSO
NORAD 38313·DEBRIS·🇨🇳 China

Lançado Aug 15, 2011 de Taiyuan Satellite Launch Center

Loading…

Próximas Passagens (próximas 24 horas)

TLE

AtualizadoSource: Space-Track

Época: Sep 14, 2026, 10:22 UTC

1 38313U 11043C   26257.43242225  .00000124  00000-0  21456-3 0  9991
2 38313  99.3761 103.6537 0219641  51.6119  64.6690 13.52089047662482

Acompanhe CZ-4B DEB em tempo real com AllMySat

Download on the App Store